Regional Weather Roundup
Issued by NWS

Home | Current Version | Previous Version | Text Only | Print | Product List | Glossary On
Versions: 1 2 3 4 5 6 7 8 9 10 11 12 13 14 15 16 17 18 19 20 21 22 23 24 25 26 27 28 29 30 31 32 33 34 35 36 37 38 39 40 41 42 43 44 45 46 47 48 49 50
000
ASUS43 KLMK 262210
RWRKY
KENTUCKY REGIONAL WEATHER ROUNDUP
NATIONAL WEATHER SERVICE LOUISVILLE KY
600 PM EDT THU APR 26 2018

NOTE "FAIR" INDICATES FEW OR NO CLOUDS BELOW 12,000 FEET
WITH NO SIGNIFICANT WEATHER AND/OR OBSTRUCTIONS TO VISIBILITY.

KYZ001>023-026-027-061>063-070>075-262300-
WESTERN AND SOUTH CENTRAL KENTUCKY

CITY           SKY/WX    TMP DP  RH WIND       PRES   REMARKS
PADUCAH        FAIR      68  44  42 N8        29.87S
HENDERSON      FAIR      67  35  30 NW8       29.87F
OWENSBORO      FAIR      68  37  32 NW13      29.86S
HOPKINSVILLE   PTSUNNY   60  53  79 NW5       29.87S
BOWLING GREEN  FAIR      61  56  83 SW7       29.87R
GLASGOW        FAIR      60  52  75 W9        29.86R
$$

KYZ024-025-028>034-038-045-046-053-262300-
NORTH CENTRAL KENTUCKY

CITY           SKY/WX    TMP DP  RH WIND       PRES   REMARKS
LOUISVILLE/SDF FAIR      71  38  29 CALM      29.82S
LOUISVILLE/LOU FAIR      69  42  37 VRB3      29.83S
FORT KNOX      PTSUNNY   69  39  34 NW8       29.83S
$$

KYZ035>037-039>044-047>052-055>060-089>105-262300-
NORTHEAST KENTUCKY

CITY           SKY/WX    TMP DP  RH WIND       PRES   REMARKS
LEXINGTON      FAIR      65  48  54 NW5       29.84S
COVINGTON      PTSUNNY   66  32  28 CALM      29.83S
FRANKFORT      FAIR      68  42  38 W6        29.83R
$$

KYZ054-064>069-076>088-106>120-262300-
SOUTHEAST KENTUCKY

CITY           SKY/WX    TMP DP  RH WIND       PRES   REMARKS
JACKSON        CLOUDY    62  42  47 CALM      29.85S
LONDON         LGT RAIN  58  47  66 W5        29.85S
SOMERSET       LGT RAIN  55  48  76 W5        29.87R
MIDDLESBORO    CLOUDY    56  49  76 CALM      29.85F
MONTICELLO     NOT AVBL
$$





USA.gov is the U.S. government's official web portal to all federal, state and local government web resources and services.